Regional Weather Roundup
Issued by NWS

Home | Current Version | Previous Version | Graphics & Text | Print | Product List | Glossary On
Versions: 1 2 3 4 5 6 7 8 9 10 11 12 13 14 15 16 17 18 19 20 21 22 23 24 25 26 27 28 29 30 31 32 33 34 35 36 37 38 39 40 41 42 43 44 45 46 47 48 49 50
000
ASUS43 KLSX 051359
RWRMO

WEATHER SUMMARY FOR MISSOURI
NATIONAL WEATHER SERVICE SPRINGFIELD MO
900 AM CDT TUE MAY 05 2015

NOTE: "FAIR" INDICATES FEW OR NO CLOUDS BELOW 12,000 FEET WITH NO
       SIGNIFICANT WEATHER AND/OR OBSTRUCTIONS TO VISIBILITY.
       CURRENT SKY AND/OR WEATHER CONDITIONS ARE NOT AVAILABLE FOR
       CHILLICOTHE AND FARMINGTON.

MOZ001>031-035>038-043-044-053-054-051500-
...NORTHERN AND WESTERN MISSOURI...

CITY           SKY/WX    TMP DP  RH WIND       PRES   REMARKS
KANSAS CTY INT PTSUNNY   67  61  81 S9        30.11S
KANSAS C DTWN  PTSUNNY   68  60  75 S8        30.10F
LEE`S SUMMIT   CLOUDY    67  59  75 S8        30.12S
ST JOSEPH      CLOUDY    62  60  93 SE8       30.11S
CHILLICOTHE      N/A     66  62  87 CALM      30.14R
KIRKSVILLE     CLOUDY    65  64  97 E3        30.16R FOG

$$
MOZ066>068-077>081-088>096-101>105-051500-
...SOUTHWEST MISSOURI...

CITY           SKY/WX    TMP DP  RH WIND       PRES   REMARKS
SPRINGFIELD    SUNNY     69  58  67 S13       30.15S
JOPLIN         SUNNY     70  59  68 S12       30.13S

$$
MOZ032>034-039>042-045>050-055>058-069>072-051500-
...CENTRAL MISSOURI...

CITY           SKY/WX    TMP DP  RH WIND       PRES   REMARKS
COLUMBIA       SUNNY     70  59  68 S8        30.17R
JEFFERSON CITY PTSUNNY   70  57  63 SE5       30.17R
ROLLA          PTSUNNY   70  57  63 S10       30.19R
SEDALIA        SUNNY     72  59  63 S9        30.16R
OSAGE BEACH    PTSUNNY   70  57  64 S6        30.17S

$$
MOZ051-052-059>065-051500-
...EAST CENTRAL MISSOURI...

CITY           SKY/WX    TMP DP  RH WIND       PRES   REMARKS
ST LOUIS INTL  PTSUNNY   74  56  53 SW12      30.19R
SPIRIT OF STL  MOSUNNY   72  58  61 SW7       30.18R
ST CHARLES     MOSUNNY   73  57  57 SW9       30.18R

$$
MOZ072>076-082>087-097>100-106>115-051500-
...SOUTH CENTRAL AND SOUTHEAST MISSOURI...

CITY           SKY/WX    TMP DP  RH WIND       PRES   REMARKS
CAPE GIRARDEAU SUNNY     71  57  61 SW3       30.23S
FARMINGTON     PTSUNNY   66  54  63 SE5       30.26S
POPLAR BLUFF   SUNNY     72  58  61 VRB6      30.21S
WEST PLAINS    MOSUNNY   69  56  62 S8        30.22S

$$



USA.gov is the U.S. government's official web portal to all federal, state and local government web resources and services.